TimeCST,TemperatureF,Dew PointF,Humidity,Sea Level PressureIn,VisibilityMPH,Wind Direction,Wind SpeedMPH,Gust SpeedMPH,PrecipitationIn,Events,Conditions,WindDirDegrees,DateUTC
12:54 AM,24.1,21.9,91,29.81,5.0,WNW,8.1,-,0.00,Snow,Light Snow,290,2013-02-23 06:54:00
1:27 AM,23.0,21.2,93,29.76,7.0,WNW,6.9,-,0.00,,Overcast,300,2013-02-23 07:27:00
1:54 AM,23.0,21.0,92,29.81,7.0,WNW,6.9,-,0.00,Snow,Light Snow,290,2013-02-23 07:54:00
2:07 AM,23.0,21.2,93,29.76,9.0,WNW,6.9,-,0.00,,Overcast,290,2013-02-23 08:07:00
2:54 AM,23.0,19.9,88,29.81,5.0,NW,6.9,-,0.00,Snow,Light Snow,310,2013-02-23 08:54:00
3:01 AM,23.0,19.4,86,29.76,5.0,NW,6.9,-,0.00,Snow,Light Snow,310,2013-02-23 09:01:00
3:54 AM,23.0,19.9,88,29.81,8.0,WNW,6.9,-,0.00,,Overcast,290,2013-02-23 09:54:00
4:23 AM,23.0,19.4,86,29.75,8.0,WNW,5.8,-,N/A,,Overcast,290,2013-02-23 10:23:00
4:32 AM,23.0,19.4,86,29.75,6.0,West,5.8,-,0.00,Snow,Light Snow,280,2013-02-23 10:32:00
4:54 AM,23.0,19.9,88,29.82,6.0,West,5.8,-,0.00,Snow,Light Snow,270,2013-02-23 10:54:00
5:02 AM,23.0,19.4,86,29.76,6.0,West,5.8,-,0.00,Snow,Light Snow,270,2013-02-23 11:02:00
6:54 AM,21.9,19.9,92,29.83,6.0,West,8.1,-,0.00,,Overcast,280,2013-02-23 12:54:00
7:54 AM,23.0,19.9,88,29.84,7.0,West,8.1,-,N/A,,Overcast,270,2013-02-23 13:54:00
8:14 AM,21.2,19.4,93,29.78,2.0,West,9.2,-,0.00,Snow,Light Snow,270,2013-02-23 14:14:00
8:36 AM,21.2,19.4,93,29.78,3.0,West,8.1,-,0.00,Snow,Light Snow,270,2013-02-23 14:36:00
8:54 AM,21.9,19.0,89,29.85,4.0,West,6.9,-,0.00,Snow,Light Snow,270,2013-02-23 14:54:00
9:49 AM,23.0,19.4,86,29.79,6.0,West,10.4,-,0.00,,Overcast,270,2013-02-23 15:49:00
9:54 AM,23.0,19.0,85,29.86,6.0,West,9.2,-,0.00,,Overcast,280,2013-02-23 15:54:00
10:42 AM,23.0,19.4,86,29.80,7.0,WNW,10.4,-,0.00,,Overcast,290,2013-02-23 16:42:00
10:54 AM,23.0,19.0,85,29.86,7.0,WNW,8.1,-,0.00,,Overcast,290,2013-02-23 16:54:00
11:05 AM,23.0,19.4,86,29.79,7.0,West,8.1,-,N/A,,Overcast,280,2013-02-23 17:05:00
11:54 AM,24.1,19.0,81,29.85,9.0,West,9.2,-,N/A,,Mostly Cloudy,280,2013-02-23 17:54:00
12:54 PM,25.0,19.0,78,29.84,9.0,WNW,9.2,-,N/A,,Overcast,300,2013-02-23 18:54:00
1:54 PM,26.1,19.9,78,29.84,10.0,NW,10.4,-,N/A,,Overcast,320,2013-02-23 19:54:00
2:08 PM,26.6,19.4,74,29.78,10.0,NW,10.4,-,N/A,,Overcast,320,2013-02-23 20:08:00
2:54 PM,26.1,19.9,78,29.85,10.0,NNW,9.2,-,N/A,,Overcast,330,2013-02-23 20:54:00
3:54 PM,25.0,18.0,75,29.86,10.0,WNW,5.8,-,N/A,,Mostly Cloudy,300,2013-02-23 21:54:00
4:54 PM,26.1,19.0,75,29.86,10.0,West,4.6,-,N/A,,Overcast,280,2013-02-23 22:54:00
5:54 PM,26.1,19.0,75,29.88,10.0,West,5.8,-,N/A,,Overcast,260,2013-02-23 23:54:00
6:54 PM,25.0,19.0,78,29.89,10.0,WSW,4.6,-,N/A,,Mostly Cloudy,250,2013-02-24 00:54:00
7:11 PM,24.8,19.4,80,29.83,10.0,WSW,4.6,-,N/A,,Overcast,250,2013-02-24 01:11:00
7:54 PM,24.1,19.0,81,29.91,7.0,West,5.8,-,N/A,,Overcast,260,2013-02-24 01:54:00
8:03 PM,24.8,19.4,80,29.84,8.0,WSW,5.8,-,N/A,,Overcast,250,2013-02-24 02:03:00
8:20 PM,24.8,19.4,80,29.85,8.0,WSW,6.9,-,N/A,,Overcast,250,2013-02-24 02:20:00
8:46 PM,24.8,19.4,80,29.86,6.0,West,8.1,-,N/A,,Haze,260,2013-02-24 02:46:00
8:54 PM,24.1,19.9,84,29.92,6.0,West,9.2,-,N/A,,Overcast,260,2013-02-24 02:54:00
10:54 PM,24.1,19.9,84,29.93,8.0,West,5.8,-,N/A,,Overcast,270,2013-02-24 04:54:00
11:35 PM,24.8,19.4,80,29.88,8.0,West,5.8,-,N/A,,Overcast,270,2013-02-24 05:35:00
11:54 PM,24.1,19.9,84,29.95,7.0,West,6.9,-,N/A,,Overcast,280,2013-02-24 05:54:00